Location: Shepherdstown, WV
(39.4326°N, 77.8042°W)
Time: 05:31:54
(UTC-04:00)

Vanguard 1 - Pass Details

Date: 08 August 2021
Orbit: 652 x 3831 km, 34.3° (Epoch: 24 September)

Event Time Altitude Azimuth Distance (km) Brightness Sun altitude
Rises 13:38:03 0° 269° (W) 3,105 12.7 66.0°
Reaches altitude 10° 13:40:13 10° 260° (W) 2,325 12.3 65.9°
Maximum altitude 13:45:05 38° 192° (SSW) 1,489 12.3 65.7°
Drops below altitude 10° 13:52:40 10° 129° (SE) 3,639 13.2 65.2°
Sets 13:56:58 0° 122° (ESE) 5,149 13.8 64.9°
